Погода Ханты-Мансийск

Хотите узнать прогноз погоды Ханты-Мансийск? Тогда Вам сюда: Погода Ханты-Мансийск

Поиск расширенной информации на нашем сайте:

Полезная информация:

Новости сайта



02.01.2020
Опубликован Долгосрочный прогноз погоды по городам России и ближнего зарубежья на январь 2020 года.
Карты: Прогноз на январь и февраль 2020 года, Сравнение прогнозируемой аномалии приземной температуры воздуха на январь 2020 года по разным моделям.




Погода Ханты-Мансийск - сегодня

Время (UTC), дата Ветер
(°,м/с) 
Видим.   Явления Облачность Т
(°С)
Тd
(°С)
f(%) Тe
(°С)
Pmin
(гПа)
dP
(гПа)
Po
(мм)
O2
(г/м3)
Тmin Tmax R s Состояние
почвы
21 02.03.21 160 (Ю) 10 км    10/0 средняя 
[As trans]
-13.1 -16.8 74 -18  999.5  -1.5  745  317           
00 03.03.21 170 (Ю) 4000 м  слаб. снег  10/0 средняя 
[As trans]
-13.5 -16 81 -18  997.7  -1.8  744  317           
03 03.03.21 160 (Ю) 4000 м  слаб. снег  10/10 600 м 
[Ns]
-13.8 -16 83 -18  996.9  -0.8  743  317  -13.8    0.9  59  равномерный
сухой снег
100% 
09 03.03.21 160 (Ю) 4000 м  слаб. снег  9/9 600 м средняя 
[As op]
-11.4 -14.8 76 -16  995.2  -0.5  742  313           
12 03.03.21 180 (Ю) 10 км  слаб. снег  8/8 300 м средняя 
[Sc diur, vesp|As op]
-11.3 -14.5 77 -15  995.1  0.1  742  313           
15 03.03.21 180 (Ю) 4000 м  слаб. снег  10/10 300 м 
[Frnb|Ns]
-10.6 -12.4 87 -15  995.5  0.4  742  312    -10.6  0.9     
18 03.03.21 180 (Ю) 4000 м  слаб. ливневой снег  8/8 300 м кучево-дожд. 
[Cb cap]
-10.7 -12.6 86 -13  995.4  0.1  742  312           
21 03.03.21 170 (Ю) 10 км  слаб. ливневой снег  10/6 600 м кучево-дожд., средняя 
[Cb cap|Ac und]
-9.7 -11.6 86 -13  995.1  -0.3  742  311           
00 04.03.21 170 (Ю) 10 км  снежные кристаллы{ливн. осадки}  10/10 1000 м 
[Sc]
-8.6 -11 83 -10  994.7  -0.4  742  310           
03 04.03.21 160 (Ю) 10 км  слаб. снег  9/5 600 м средняя 
[Sc|Ac As]
-8.7 -10.6 86 -12  994.6  0.1  742  310  -11.5    0.3  59  равномерный
сухой снег
100% 
06 04.03.21 170 (Ю) 10 км  слаб. снег  9/8 600 м средняя 
[Sc|Ac trans]
-7.1 -10.1 79 -10  993.8  -0.7  741  308           
09 04.03.21 160 (Ю) 10 км  слаб. снег  9/1 1000 м средняя 
[Sc|As op]
-6.2 -9.1 80 -10  993.3  -0.5  741  306           
12 04.03.21 150 (ЮВ) 10 км  слаб. снег  10/0 средняя 
[Ac As]
-5.8 -7.3 89 -8  993  -0.3  741  306           
15 04.03.21 170 (Ю) 10 км  слаб. снег  10/0 средняя 
[Ac As]
-5.8 -6.9 92 -7  992.8  -0.2  740  306    -5.7  0.2     
18 04.03.21 230 (ЮЗ) 10 км  слаб. снег  9/9 600 м средняя 
[As op]
-5.4 -6.5 92 -5  992.6  -0.2  740  305           
21 04.03.21 170 (Ю) 10 км  {снег}  10/10 600 м 
[St]
-6.5 -7.5 93 -6  992.6  740  306           
00 05.03.21 140 (ЮВ) 4000 м  слаб. снег  10/10 600 м 
[Frnb|Ns]
-7.6 -8.7 92 -7  992.3  -0.3  740  308           
03 05.03.21 170 (Ю) 4000 м  слаб. снег  10/10 600 м 
[Ns]
-7.7 -8.8 92 -7  992.7  0.4  740  308  -8    0.8  62  равномерный
сухой снег
100% 
06 05.03.21 160 (Ю) 10 км  {снег}  9/6 300 м средняя 
[Sc|As op]
-7.4 -8.6 91 -9  993.4  0.7  741  308           
09 05.03.21 160 (Ю) 10 км  слаб. снег  10/8 600 м средняя 
[Sc|As trans]
-7.3 -8.5 91 -10  994.3  0.9  742  308           
12 05.03.21 180 (Ю) 10 км  {снег}  8/4 300 м средняя, верхняя 
[Sc|Ac lent|Cc]
-6.7 -7.9 91 -6  995.4  1.1  742  307           
15 05.03.21 130 (ЮВ) 10 км  слаб. снег  8/0 средняя 
[Ac As]
-7.8 -8.8 93 -8  996.4  0.9  743  309    -6.4  0.2     
03 06.03.21 тихо ()   4000 м  слаб. снег [диам. изморози 2 мм]  10/3 1000 м средняя 
[Sc|Ac As]
-10.6 -12 89 -11  995.2  742  312  -12.2    63  равномерный
сухой снег
100% 
09 06.03.21 350 (С) 4000 м  слаб. снег  10/4 1000 м средняя 
[Sc|As op]
-7.7 -9.3 88 -9  996.6  743  309           
12 06.03.21 360 (С) 4000 м  слаб. снег  10/6 1000 м средняя 
[Sc|As op]
-8.1 -9.8 88 -8  998.3  1.8  745  310           
Время (UTC), дата Ветер
(°,м/с) 
Видим.   Явления Облачность Т
(°С)
Тd
(°С)
f(%) Тe
(°С)
Pmin
(гПа)
dP
(гПа)
Po
(мм)
O2
(г/м3)
Тmin Tmax R s Состояние
почвы

Для получения пояснительной информации подведите курсор к названию столбца.

ПОГОДА Ханты-Мансийск - архив

Всё, что Вы хотите узнать о погоде Ханты-Мансийск - удобно и подробно!

Выберите нужную дату (начиная с 1 января 2019* года) и нажмите кнопку "Найти".
Будут отображены архивные сводки погоды по пункту Ханты-Мансийск, начиная с указанной даты.


Отображать данные в формате CSV (для использования в таблицах Excel)


Внимание! Наш архив погоды предназначен исключительно для личного некоммерческого использования в познавательных целях. Если Вам необходимы официальные справки о состоянии погоды (для производственных, юридических, коммерческих и т.п. целей), обращайтесь в органы Росгидромета.

*Примечание: данная дата относится к архиву по метеостанциям СССР (Россия, СНГ, Балтия).
Архив по метеостанциям Зарубежной Европы и Азии (кроме Китая) хранится 10 дней, по другим регионам земного шара (Китай, Африка, Америка, Австралия, Океания) - 1 день.

Ханты-Мансийск - район местоположения метеостанции


Название, широта, долгота, высота метеостанции:
Ханты-Мансийск 61°ш. 69°д. 46 м над ур. моря [Российская Федерация]

Дополнительная информация

В oтличие oт бoльшинства пoгoдных сайтoв мы публикуем пoдрoбную метеoинфoрмацию в детальнoм прoфессиoнальнoм фoрмате.

Характеристики температуры и влажнoсти вoздуха измеряются на высoте 2 м в тени вдали oт зданий и деревьев.
Скoрoсть ветра измеряется на высoте 10 м (на урoвне рoста челoвека скoрoсть ветра ниже в 1.5-2 раза). Если метеoстанция нахoдится в гoрoде или в лесу, тo скoрoсть ветра занижена на 2-4 м/с пo сравнению с oткрытым местoм. Скoрoсть ветра над акватoриями крупных рек и oзёр, а также на вершинах хoлмoв на 2-5 м/с выше, чем в oбычных услoвиях.
Атмoсфернoе давление в разных тoчках местнoсти мoжет значительнo oтличаться oт давления на метеoстанции, в зависимoсти oт услoвий рельефа (при пoдъёме на 10 м давление пoнижается примернo на 1 мм рт.ст.).